GW5617 Weather Reports


Display with metric or nautical units.
time (UTC)temp
F
wind
direction
speed
MPH
gust
MPH
rain 1hr
in
rain 24hr
in
rain mn
in
humidity
%
barometer
mb
20260504220015 72 274 6.0 15.0 0.00 0.00 0.00 29 1003.6
20260504214518 73 295 4.0 13.0 0.00 0.00 0.00 29 1003.4
20260504213023 74 309 6.0 10.0 0.00 0.00 0.00 27 1003.1
20260504211524 75 324 5.0 17.0 0.00 0.00 0.00 28 1003.0
20260504210031 76 297 3.0 9.0 0.00 0.00 0.00 29 1002.8
20260504204512 76 291 4.0 14.0 0.00 0.00 0.00 29 1002.7
20260504203024 76 316 4.0 11.0 0.00 0.00 0.00 30 1002.8
20260504201521 76 302 5.0 10.0 0.00 0.00 0.00 32 1002.6
20260504200026 76 329 5.0 12.0 0.00 0.00 0.00 35 1002.5
20260504194533 77 307 5.0 11.0 0.00 0.00 0.00 34 1002.4
20260504193017 77 294 6.0 14.0 0.00 0.00 0.00 34 1002.3
20260504191523 77 349 4.0 11.0 0.00 0.00 0.00 35 1002.2
20260504190021 78 321 3.0 9.0 0.00 0.00 0.00 36 1002.0
20260504184530 77 344 5.0 9.0 0.00 0.00 0.00 34 1001.9
20260504183031 77 34 5.0 12.0 0.00 0.00 0.00 35 1001.9
20260504181527 78 305 4.0 15.0 0.00 0.00 0.00 32 1001.8
20260504180021 79 280 5.0 10.0 0.00 0.00 0.00 29 1001.7
20260504174526 79 307 5.0 12.0 0.00 0.00 0.00 30 1001.6
20260504173026 79 326 3.0 8.0 0.00 0.00 0.00 34 1001.6
20260504171529 78 317 3.0 7.0 0.00 0.00 0.00 31 1001.7
20260504081524 52 218 1.0 3.0 0.00 0.00 0.00 67 1003.4
20260504044524 49 294 0.0 0.0 0.00 0.00 0.00 77 1006.2
20260504043025 50 294 0.0 0.0 0.00 0.00 0.00 76 1006.3
20260504041527 51 294 0.0 0.0 0.00 0.00 0.00 75 1006.5
20260504040015 51 294 0.0 0.0 0.00 0.00 0.00 74 1006.7
20260504034520 52 294 0.0 0.0 0.00 0.00 0.00 73 1007.0
20260504033022 53 294 0.0 1.0 0.00 0.00 0.00 71 1007.1
20260504031524 53 294 0.0 0.0 0.00 0.00 0.00 70 1007.1
20260504030028 54 294 0.0 1.0 0.00 0.00 0.00 68 1007.3
20260504024516 55 294 0.0 0.0 0.00 0.00 0.00 66 1007.4
20260504023020 55 294 0.0 1.0 0.00 0.00 0.00 65 1007.4
20260504021528 55 296 0.0 0.0 0.00 0.00 0.00 67 1007.4
20260504020029 56 296 0.0 0.0 0.00 0.00 0.00 65 1007.6
20260504014541 58 296 0.0 0.0 0.00 0.00 0.00 63 1007.7
20260504013016 60 296 0.0 0.0 0.00 0.00 0.00 61 1007.7
20260504011522 63 296 0.0 1.0 0.00 0.00 0.00 59 1007.7
20260504010025 65 296 0.0 1.0 0.00 0.00 0.00 53 1007.7
20260504004527 68 296 0.0 0.0 0.00 0.00 0.00 44 1007.7
20260504003028 70 296 0.0 1.0 0.00 0.00 0.00 34 1007.8
20260504001526 71 295 0.0 3.0 0.00 0.00 0.00 33 1008.0
20260504000037 72 290 0.0 4.0 0.00 0.00 0.00 32 1008.1
20260503234526 72 297 1.0 4.0 0.00 0.00 0.00 31 1008.1
20260503233027 73 323 1.0 3.0 0.00 0.00 0.00 30 1008.2
20260503231526 73 309 1.0 5.0 0.00 0.00 0.00 31 1008.2
20260503230028 73 295 1.0 4.0 0.00 0.00 0.00 30 1008.3
20260503224523 73 306 1.0 5.0 0.00 0.00 0.00 30 1008.3
20260503223008 73 274 2.0 8.0 0.00 0.00 0.00 31 1008.5
20260503221511 73 61 2.0 7.0 0.00 0.00 0.00 30 1008.6